When you browse on this site, cookies collect data to enhance your experience and personalize the content and advertising you see.
Visit our Privacy Policy to learn more. By continuing to use the site, you agree to this use of cookies and data.
  • In Switzerland
  • List of Countries
  • For 7 days
  • Water Temperature
  • Satellite Maps
  • Weather Map
  • Weather Widgets
  • user-avatar
    Login

    Hourly Weather Oranienburg

    Today, 23 July, Tuesday

    Time Temperature Precipitation Wind Pressure Humidity
    00:00 +18°C° 0 mm 2 mps 763 mmHg 89%
    01:00 +18°C° 0 mm 2 mps 763 mmHg 89%
    02:00 +18°C° 0 mm 2 mps 762 mmHg 91%
    03:00 +18°C° 0 mm 2 mps 762 mmHg 92%
    04:00 +18°C° 0 mm 2 mps 762 mmHg 94%
    05:00 +19°C° 0 mm 2 mps 762 mmHg 91%
    06:00 +20°C° 0 mm 3 mps 762 mmHg 88%
    07:00 +21°C° 0 mm 3 mps 763 mmHg 85%
    08:00 +22°C° 0 mm 3 mps 763 mmHg 77%
    09:00 +25°C° 0 mm 3 mps 763 mmHg 69%
    10:00 +27°C° 0 mm 3 mps 763 mmHg 61%
    11:00 +28°C° 0 mm 3 mps 762 mmHg 56%
    12:00 +29°C° 0 mm 3 mps 762 mmHg 52%
    13:00 +30°C° 0 mm 3 mps 762 mmHg 47%
    14:00 +30°C° 0 mm 3 mps 762 mmHg 47%
    15:00 +30°C° 0 mm 3 mps 762 mmHg 46%
    16:00 +31°C° 0 mm 3 mps 762 mmHg 45%
    17:00 +29°C° 0 mm 3 mps 761 mmHg 50%
    18:00 +28°C° 0 mm 3 mps 761 mmHg 56%
    19:00 +27°C° 0 mm 3 mps 761 mmHg 61%
    20:00 +25°C° 0 mm 2 mps 761 mmHg 65%
    21:00 +23°C° 0 mm 2 mps 761 mmHg 70%
    22:00 +20°C° 0 mm 2 mps 762 mmHg 74%
    23:00 +21°C° 0 mm 1 mps 762 mmHg 76%

    Tomorrow, 24 July, Wednesday

    Time Temperature Precipitation Wind Pressure Humidity
    00:00 +20°C° 0 mm 1 mps 761 mmHg 79%
    01:00 +20°C° 0 mm 1 mps 761 mmHg 81%
    02:00 +19°C° 0 mm 1 mps 761 mmHg 83%
    03:00 +17°C° 0 mm 0 mps 761 mmHg 84%
    04:00 +17°C° 0 mm 0 mps 761 mmHg 86%
    05:00 +18°C° 0 mm 0 mps 761 mmHg 80%
    06:00 +20°C° 0 mm 0 mps 761 mmHg 75%
    07:00 +22°C° 0 mm 0 mps 761 mmHg 69%
    08:00 +24°C° 0 mm 0 mps 761 mmHg 63%
    09:00 +26°C° 0 mm 0 mps 761 mmHg 57%
    10:00 +28°C° 0 mm 0 mps 761 mmHg 51%
    11:00 +29°C° 0 mm 0 mps 761 mmHg 46%
    12:00 +30°C° 0 mm 0 mps 760 mmHg 42%
    13:00 +31°C° 0 mm 0 mps 760 mmHg 37%
    14:00 +31°C° 0 mm 0 mps 760 mmHg 37%
    15:00 +33°C° 0 mm 1 mps 760 mmHg 36%
    16:00 +33°C° 0 mm 1 mps 760 mmHg 35%
    17:00 +31°C° 0 mm 1 mps 760 mmHg 41%
    18:00 +30°C° 0 mm 1 mps 759 mmHg 47%
    19:00 +28°C° 0 mm 1 mps 759 mmHg 53%
    20:00 +27°C° 0 mm 2 mps 760 mmHg 57%
    21:00 +25°C° 0 mm 2 mps 760 mmHg 60%
    22:00 +24°C° 0 mm 2 mps 761 mmHg 64%
    23:00 +23°C° 0 mm 2 mps 761 mmHg 67%

    Day after tomorrow, 25 July, Thursday

    Time Temperature Precipitation Wind Pressure Humidity
    00:00 +21°C° 0 mm 2 mps 760 mmHg 69%
    01:00 +21°C° 0 mm 2 mps 760 mmHg 72%
    02:00 +20°C° 0 mm 2 mps 760 mmHg 75%
    03:00 +21°C° 0 mm 1 mps 761 mmHg 78%
    04:00 +21°C° 0 mm 1 mps 761 mmHg 80%
    05:00 +22°C° 0 mm 1 mps 761 mmHg 76%
    06:00 +23°C° 0 mm 1 mps 760 mmHg 72%
    07:00 +25°C° 0 mm 1 mps 760 mmHg 68%
    08:00 +27°C° 0 mm 1 mps 761 mmHg 61%
    09:00 +29°C° 0 mm 1 mps 761 mmHg 53%
    10:00 +31°C° 0 mm 2 mps 761 mmHg 46%
    11:00 +31°C° 0 mm 2 mps 761 mmHg 42%
    12:00 +32°C° 0 mm 2 mps 761 mmHg 38%
    13:00 +34°C° 0 mm 3 mps 760 mmHg 34%
    14:00 +34°C° 0 mm 3 mps 760 mmHg 34%
    15:00 +34°C° 0 mm 3 mps 760 mmHg 34%
    16:00 +33°C° 0 mm 3 mps 760 mmHg 34%
    17:00 +31°C° 0 mm 3 mps 760 mmHg 41%
    18:00 +30°C° 0 mm 3 mps 760 mmHg 49%
    19:00 +28°C° 0 mm 3 mps 760 mmHg 56%
    20:00 +27°C° 0 mm 3 mps 760 mmHg 62%
    21:00 +25°C° 0 mm 3 mps 760 mmHg 68%
    22:00 +24°C° 0 mm 3 mps 761 mmHg 75%
    23:00 +22°C° 0 mm 3 mps 761 mmHg 75%

    26 July, Friday

    Time Temperature Precipitation Wind Pressure Humidity
    00:00 +20°C° 0 mm 3 mps 761 mmHg 76%
    01:00 +19°C° 0 mm 2 mps 761 mmHg 77%
    02:00 +19°C° 0 mm 2 mps 760 mmHg 77%
    03:00 +19°C° 0 mm 3 mps 760 mmHg 78%
    04:00 +19°C° 0 mm 3 mps 760 mmHg 79%
    05:00 +20°C° 0 mm 3 mps 760 mmHg 73%
    06:00 +21°C° 0 mm 3 mps 760 mmHg 68%
    07:00 +22°C° 0 mm 3 mps 760 mmHg 63%
    08:00 +25°C° 0 mm 3 mps 760 mmHg 58%
    09:00 +26°C° 0 mm 4 mps 760 mmHg 53%
    10:00 +28°C° 0 mm 4 mps 760 mmHg 49%
    11:00 +29°C° 0 mm 4 mps 759 mmHg 45%
    12:00 +30°C° 0 mm 4 mps 759 mmHg 42%
    13:00 +32°C° 0 mm 4 mps 758 mmHg 38%
    14:00 +32°C° 0 mm 4 mps 758 mmHg 38%
    15:00 +32°C° 0 mm 4 mps 758 mmHg 39%
    16:00 +32°C° 0 mm 4 mps 758 mmHg 39%
    17:00 +29°C° 0 mm 4 mps 757 mmHg 44%
    18:00 +27°C° 0 mm 4 mps 757 mmHg 49%
    19:00 +26°C° 0 mm 4 mps 757 mmHg 53%
    20:00 +23°C° 0 mm 4 mps 757 mmHg 58%
    21:00 +22°C° 0 mm 4 mps 757 mmHg 63%
    22:00 +21°C° 0 mm 4 mps 757 mmHg 67%
    23:00 +21°C° 0 mm 4 mps 757 mmHg 70%

    27 July, Saturday

    Time Temperature Precipitation Wind Pressure Humidity
    00:00 +20°C° 0 mm 4 mps 757 mmHg 72%
    01:00 +20°C° 0 mm 3 mps 757 mmHg 74%
    02:00 +19°C° 0 mm 3 mps 757 mmHg 77%
    03:00 +19°C° 0 mm 3 mps 756 mmHg 79%
    04:00 +18°C° 0 mm 3 mps 756 mmHg 81%
    05:00 +19°C° 0 mm 3 mps 756 mmHg 78%
    06:00 +20°C° 0 mm 3 mps 756 mmHg 76%
    07:00 +21°C° 0 mm 4 mps 756 mmHg 74%
    08:00 +22°C° 0 mm 4 mps 756 mmHg 67%
    09:00 +25°C° 0 mm 4 mps 756 mmHg 60%
    10:00 +27°C° 0 mm 5 mps 756 mmHg 54%
    11:00 +27°C° 0 mm 5 mps 756 mmHg 51%
    12:00 +28°C° 0 mm 5 mps 755 mmHg 49%
    13:00 +29°C° 0 mm 5 mps 755 mmHg 47%
    14:00 +29°C° 0 mm 5 mps 755 mmHg 46%
    15:00 +29°C° 0 mm 5 mps 754 mmHg 46%
    16:00 +30°C° 0 mm 6 mps 754 mmHg 46%
    17:00 +29°C° 0 mm 5 mps 754 mmHg 50%
    18:00 +28°C° 0 mm 4 mps 754 mmHg 55%
    19:00 +27°C° 0 mm 3 mps 754 mmHg 59%
    20:00 +26°C° 0 mm 3 mps 754 mmHg 63%
    21:00 +24°C° 0 mm 3 mps 754 mmHg 67%
    22:00 +22°C° 0 mm 3 mps 754 mmHg 71%
    23:00 +22°C° 0 mm 3 mps 754 mmHg 74%

    28 July, Sunday

    Time Temperature Precipitation Wind Pressure Humidity
    00:00 +21°C° 0 mm 3 mps 754 mmHg 76%
    01:00 +21°C° 0 mm 3 mps 755 mmHg 78%
    02:00 +21°C° 0 mm 3 mps 755 mmHg 81%
    03:00 +20°C° 0 mm 3 mps 754 mmHg 85%
    04:00 +20°C° 0 mm 3 mps 754 mmHg 88%
    05:00 +21°C° 0 mm 4 mps 755 mmHg 84%
    06:00 +22°C° 0 mm 4 mps 755 mmHg 81%
    07:00 +23°C° 0 mm 4 mps 755 mmHg 77%
    08:00 +26°C° 0 mm 4 mps 755 mmHg 69%
    09:00 +27°C° 0 mm 5 mps 755 mmHg 61%
    10:00 +29°C° 0 mm 5 mps 755 mmHg 53%
    11:00 +30°C° 0 mm 5 mps 755 mmHg 49%
    12:00 +32°C° 0 mm 5 mps 755 mmHg 46%
    13:00 +33°C° 0 mm 5 mps 755 mmHg 43%
    14:00 +33°C° 0 mm 5 mps 755 mmHg 42%
    15:00 +33°C° 0 mm 5 mps 755 mmHg 42%
    16:00 +33°C° 0 mm 5 mps 754 mmHg 41%
    17:00 +32°C° 0 mm 4 mps 755 mmHg 46%
    18:00 +30°C° 0 mm 4 mps 755 mmHg 50%
    19:00 +29°C° 0 mm 3 mps 755 mmHg 55%
    20:00 +27°C° 0 mm 3 mps 755 mmHg 60%
    21:00 +26°C° 0 mm 3 mps 756 mmHg 66%
    22:00 +24°C° 0 mm 3 mps 756 mmHg 72%
    23:00 +24°C° 0 mm 3 mps 756 mmHg 74%
    Show more